Back to Top

Language: 

My Weather Underground Personal Weather Station Historical Data with Graphs...

Delerius Weather Station Historical Data
Daily Summary for September 21, 2017 Units:  Metric    English   Both
« Previous Day
Next Day »
Daily Weekly Monthly Yearly Custom
  High: Low: Average:
Temperature: 16.2 °C 8 °C 13.7 °C
Dew Point: 14 °C 6.6 °C 11.8 °C
Humidity: 93 % 75 % 89 %
Wind Speed: 22.5 km/h 0 km/h 11.3 km/h
Wind Gust: 38.6 km/h - -
Wind:- - SW
Pressure: 1017.5 hPa 1010 hPa -
Precipitation: 1.27 mm    
Historical Graphs
 
 
Tabular Data for September 21, 2017
Time Temperature Dew Point Pressure Wind Wind Speed Wind Gust Humidity Rainfall Rate (Hourly) solar Conditions
00:03 14.6 °C 12.8 °C 1011.7 hPa SE 4.8 km/h 11.3 km/h 89 % 0 mm 0 W/m2
00:08 14.6 °C 12.8 °C 1011.7 hPa SE 8 km/h 22.5 km/h 89 % 0 mm 0 W/m2
00:13 14.6 °C 12.8 °C 1011.7 hPa South 11.3 km/h 22.5 km/h 89 % 0 mm 0 W/m2
00:18 14.6 °C 12.8 °C 1011.7 hPa South 9.7 km/h 20.9 km/h 89 % 0 mm 0 W/m2
00:23 14.6 °C 12.8 °C 1011.7 hPa SSW 11.3 km/h 22.5 km/h 89 % 0 mm 0 W/m2
00:28 14.6 °C 12.8 °C 1011.7 hPa SSW 11.3 km/h 22.5 km/h 89 % 0 mm 0 W/m2
00:33 14.6 °C 12.8 °C 1011.7 hPa SSW 9.7 km/h 17.7 km/h 89 % 0 mm 0 W/m2
00:38 14.6 °C 12.8 °C 1011.7 hPa SSW 11.3 km/h 19.3 km/h 89 % 0 mm 0 W/m2
00:43 14.5 °C 12.9 °C 1011.7 hPa SSW 11.3 km/h 19.3 km/h 90 % 0 mm 0 W/m2
00:48 14.5 °C 12.9 °C 1011.7 hPa SSW 12.9 km/h 20.9 km/h 90 % 0 mm 0 W/m2
00:53 14.4 °C 12.8 °C 1011.7 hPa SSW 12.9 km/h 25.7 km/h 90 % 0 mm 0 W/m2
00:58 14.4 °C 12.9 °C 1011.7 hPa SSW 12.9 km/h 25.7 km/h 91 % 0 mm 0 W/m2
01:03 14.3 °C 12.7 °C 1011.7 hPa SSW 14.5 km/h 22.5 km/h 90 % 0 mm 0 W/m2
01:08 14.3 °C 12.7 °C 1011.7 hPa SSW 14.5 km/h 22.5 km/h 90 % 0 mm 0 W/m2
01:13 14.3 °C 12.7 °C 1011.7 hPa SSW 14.5 km/h 22.5 km/h 90 % 0 mm 0 W/m2
01:18 14.3 °C 12.7 °C 1011.7 hPa SSW 14.5 km/h 24.1 km/h 90 % 0 mm 0 W/m2
01:23 14.3 °C 12.7 °C 1011.7 hPa SW 14.5 km/h 29 km/h 90 % 0 mm 0 W/m2
01:28 14.3 °C 12.7 °C 1011.7 hPa SW 14.5 km/h 29 km/h 90 % 0 mm 0 W/m2
01:33 14.3 °C 12.8 °C 1011.4 hPa SSW 12.9 km/h 25.7 km/h 91 % 0 mm 0 W/m2
01:38 14.3 °C 12.8 °C 1011.7 hPa SSW 11.3 km/h 16.1 km/h 91 % 0 mm 0 W/m2
01:43 14.3 °C 12.8 °C 1011.7 hPa South 11.3 km/h 19.3 km/h 91 % 0 mm 0 W/m2
01:48 14.3 °C 12.8 °C 1011.7 hPa SSW 11.3 km/h 20.9 km/h 91 % 0 mm 0 W/m2
01:53 14.3 °C 12.8 °C 1011.7 hPa South 9.7 km/h 20.9 km/h 91 % 0 mm 0 W/m2
01:58 14.2 °C 12.8 °C 1011.7 hPa South 9.7 km/h 16.1 km/h 91 % 0 mm 0 W/m2
02:03 14.2 °C 12.8 °C 1011.4 hPa South 9.7 km/h 19.3 km/h 91 % 0 mm 0 W/m2
02:08 14.2 °C 12.8 °C 1011.4 hPa South 9.7 km/h 20.9 km/h 91 % 0 mm 0 W/m2
02:13 14.2 °C 12.8 °C 1011.4 hPa South 11.3 km/h 20.9 km/h 91 % 0 mm 0 W/m2
02:18 14.2 °C 12.8 °C 1011.7 hPa South 12.9 km/h 19.3 km/h 91 % 0 mm 0 W/m2
02:23 14.2 °C 12.8 °C 1011.7 hPa South 12.9 km/h 32.2 km/h 91 % 0 mm 0 W/m2
02:28 14.3 °C 12.8 °C 1011.7 hPa SSW 14.5 km/h 32.2 km/h 91 % 0 mm 0 W/m2
02:33 14.3 °C 13 °C 1011.7 hPa SSW 14.5 km/h 25.7 km/h 92 % 0 mm 0 W/m2
02:38 14.3 °C 13 °C 1011.4 hPa SSW 14.5 km/h 24.1 km/h 92 % 0 mm 0 W/m2
02:40 14.3 °C 13 °C 1011.4 hPa SSW 14.5 km/h 24.1 km/h 92 % 0 mm 0 W/m2
02:45 14.3 °C 13 °C 1011.4 hPa SSW 16.1 km/h 25.7 km/h 92 % 0 mm 0 W/m2
02:46 14.3 °C 13 °C 1011.4 hPa SSW 16.1 km/h 25.7 km/h 92 % 0 mm 0 W/m2
02:51 14.3 °C 13 °C 1011.4 hPa SSW 16.1 km/h 25.7 km/h 92 % 0 mm 0 W/m2
02:56 14.3 °C 13 °C 1011.4 hPa SSW 16.1 km/h 25.7 km/h 92 % 0 mm 0 W/m2
03:01 14.3 °C 13 °C 1011.4 hPa SSW 16.1 km/h 24.1 km/h 92 % 0 mm 0 W/m2
03:06 14.3 °C 13 °C 1011.4 hPa SSW 16.1 km/h 29 km/h 92 % 0 mm 0 W/m2
03:11 14.3 °C 13 °C 1011.4 hPa SSW 14.5 km/h 29 km/h 92 % 0 mm 0 W/m2
03:16 14.3 °C 13 °C 1011.4 hPa SSW 14.5 km/h 22.5 km/h 92 % 0 mm 0 W/m2
03:21 14.3 °C 13 °C 1011.1 hPa SSW 14.5 km/h 22.5 km/h 92 % 0 mm 0 W/m2
03:26 14.3 °C 13 °C 1011.1 hPa SSW 12.9 km/h 22.5 km/h 92 % 0 mm 0 W/m2
03:28 14.3 °C 13 °C 1011.1 hPa SSW 14.5 km/h 22.5 km/h 92 % 0 mm 0 W/m2
03:33 14.3 °C 13 °C 1011.1 hPa South 14.5 km/h 24.1 km/h 92 % 0 mm 0 W/m2
03:38 14.3 °C 13 °C 1011.1 hPa SSW 12.9 km/h 24.1 km/h 92 % 0 mm 0 W/m2
03:43 14.3 °C 13 °C 1011.1 hPa SSW 14.5 km/h 24.1 km/h 92 % 0 mm 0 W/m2
03:48 14.3 °C 13 °C 1011.1 hPa SSW 14.5 km/h 24.1 km/h 92 % 0 mm 0 W/m2
03:53 14.3 °C 13 °C 1010.7 hPa SSW 11.3 km/h 19.3 km/h 92 % 0 mm 0 W/m2
03:58 14.3 °C 13 °C 1010.7 hPa SSW 14.5 km/h 32.2 km/h 92 % 0 mm 0 W/m2
04:03 14.3 °C 13 °C 1011.1 hPa SSW 16.1 km/h 32.2 km/h 92 % 0 mm 0 W/m2
04:08 14.3 °C 13 °C 1010.7 hPa SSW 14.5 km/h 24.1 km/h 92 % 0 mm 0 W/m2
04:13 14.3 °C 13 °C 1010.7 hPa SSW 14.5 km/h 29 km/h 92 % 0 mm 0 W/m2
04:18 14.4 °C 13.1 °C 1010.7 hPa SSW 14.5 km/h 29 km/h 92 % 0 mm 0 W/m2
04:20 14.4 °C 13.1 °C 1010.7 hPa SSW 12.9 km/h 22.5 km/h 92 % 0 mm 0 W/m2
04:24 14.4 °C 13.1 °C 1010.7 hPa SSW 12.9 km/h 20.9 km/h 92 % 0 mm 0 W/m2
04:25 14.4 °C 13.1 °C 1010.7 hPa SSW 11.3 km/h 20.9 km/h 92 % 0 mm 0 W/m2
04:28 14.4 °C 13.1 °C 1010.7 hPa SSW 11.3 km/h 20.9 km/h 92 % 0 mm 0 W/m2
04:33 14.4 °C 13.1 °C 1010.7 hPa SSW 9.7 km/h 17.7 km/h 92 % 0 mm 0 W/m2
04:38 14.4 °C 13.1 °C 1010.4 hPa SSW 8 km/h 17.7 km/h 92 % 0 mm 0 W/m2
04:43 14.4 °C 13.1 °C 1010.4 hPa South 9.7 km/h 17.7 km/h 92 % 0 mm 0 W/m2
04:48 14.4 °C 13.1 °C 1010.4 hPa South 11.3 km/h 19.3 km/h 92 % 0 mm 0 W/m2
04:53 14.4 °C 13.1 °C 1010.4 hPa South 12.9 km/h 22.5 km/h 92 % 0 mm 0 W/m2
04:58 14.4 °C 13.1 °C 1010.4 hPa South 12.9 km/h 22.5 km/h 92 % 0 mm 0 W/m2
05:03 14.4 °C 13.1 °C 1010.4 hPa South 12.9 km/h 19.3 km/h 92 % 0 mm 0 W/m2
05:08 14.4 °C 13.1 °C 1010.4 hPa South 11.3 km/h 19.3 km/h 92 % 0 mm 0 W/m2
05:13 14.4 °C 13.1 °C 1010.4 hPa South 11.3 km/h 20.9 km/h 92 % 0 mm 0 W/m2
05:18 14.4 °C 13.1 °C 1010.4 hPa SSW 9.7 km/h 20.9 km/h 92 % 0 mm 0 W/m2
05:23 14.4 °C 13.1 °C 1010.4 hPa South 6.4 km/h 17.7 km/h 92 % 0 mm 0 W/m2
05:28 14.4 °C 13.1 °C 1010.4 hPa South 9.7 km/h 20.9 km/h 92 % 0 mm 0 W/m2
05:33 14.4 °C 13.1 °C 1010.4 hPa SSW 11.3 km/h 20.9 km/h 92 % 0 mm 0 W/m2
05:38 14.4 °C 13.1 °C 1010.4 hPa SSW 9.7 km/h 20.9 km/h 92 % 0 mm 0 W/m2
05:43 14.4 °C 13.1 °C 1010.4 hPa South 8 km/h 16.1 km/h 92 % 0 mm 0 W/m2
05:48 14.4 °C 13.1 °C 1010.4 hPa South 8 km/h 17.7 km/h 92 % 0 mm 0 W/m2
05:53 14.4 °C 13.1 °C 1010 hPa South 9.7 km/h 20.9 km/h 92 % 0 mm 0 W/m2
05:58 14.4 °C 13.1 °C 1010 hPa South 11.3 km/h 20.9 km/h 92 % 0 mm 0 W/m2
06:03 14.4 °C 12.9 °C 1010 hPa South 12.9 km/h 24.1 km/h 91 % 0 mm 0 W/m2
06:08 14.4 °C 12.9 °C 1010 hPa South 11.3 km/h 24.1 km/h 91 % 0 mm 0 W/m2
06:09 14.4 °C 12.9 °C 1010 hPa South 11.3 km/h 24.1 km/h 91 % 0 mm 0 W/m2
06:14 14.4 °C 12.9 °C 1010 hPa South 12.9 km/h 24.1 km/h 91 % 0 mm 0 W/m2
06:19 14.4 °C 12.9 °C 1010 hPa South 14.5 km/h 24.1 km/h 91 % 0 mm 0 W/m2
06:24 14.4 °C 12.9 °C 1010.4 hPa South 14.5 km/h 29 km/h 91 % 0 mm 0 W/m2
06:26 14.5 °C 13.1 °C 1010.4 hPa South 14.5 km/h 29 km/h 91 % 0 mm 0 W/m2
06:31 14.5 °C 13.1 °C 1010 hPa South 12.9 km/h 29 km/h 91 % 0 mm 0 W/m2
06:36 14.5 °C 13.1 °C 1010 hPa South 12.9 km/h 25.7 km/h 91 % 0 mm 0 W/m2
06:41 14.5 °C 13.1 °C 1010 hPa South 12.9 km/h 22.5 km/h 91 % 0 mm 0 W/m2
06:46 14.5 °C 13.1 °C 1010 hPa SSE 11.3 km/h 19.3 km/h 91 % 0 mm 0 W/m2
06:51 14.6 °C 13.2 °C 1010.4 hPa South 11.3 km/h 22.5 km/h 91 % 0 mm 0 W/m2
06:56 14.6 °C 13.2 °C 1010 hPa South 12.9 km/h 22.5 km/h 91 % 0 mm 0 W/m2
07:01 14.6 °C 13.2 °C 1010.4 hPa South 11.3 km/h 22.5 km/h 91 % 0 mm 0 W/m2
07:06 14.6 °C 13.2 °C 1010 hPa SSE 9.7 km/h 22.5 km/h 91 % 0 mm 5 W/m2
07:11 14.6 °C 13.2 °C 1010 hPa South 11.3 km/h 22.5 km/h 91 % 0 mm 5 W/m2
07:16 14.6 °C 13.2 °C 1010 hPa South 11.3 km/h 22.5 km/h 91 % 0 mm 7 W/m2
07:21 14.6 °C 13.2 °C 1010 hPa South 11.3 km/h 20.9 km/h 91 % 0 mm 9 W/m2
07:26 14.6 °C 13.2 °C 1010 hPa South 11.3 km/h 19.3 km/h 91 % 0 mm 14 W/m2
07:31 14.6 °C 13.2 °C 1010 hPa South 11.3 km/h 22.5 km/h 91 % 0 mm 21 W/m2
07:36 14.6 °C 13.2 °C 1010 hPa South 11.3 km/h 22.5 km/h 91 % 0 mm 32 W/m2
07:39 14.7 °C 13.2 °C 1010 hPa South 11.3 km/h 22.5 km/h 91 % 0 mm 33 W/m2
07:44 14.7 °C 13.2 °C 1010 hPa South 14.5 km/h 25.7 km/h 91 % 0 mm 33 W/m2
07:49 14.7 °C 13.1 °C 1010 hPa South 14.5 km/h 25.7 km/h 90 % 0 mm 26 W/m2
07:54 14.7 °C 13.1 °C 1010 hPa South 16.1 km/h 33.8 km/h 90 % 0 mm 21 W/m2
07:59 14.7 °C 13.1 °C 1010 hPa South 17.7 km/h 35.4 km/h 90 % 0 mm 26 W/m2
08:09 14.8 °C 13.2 °C 1010 hPa South 16.1 km/h 30.6 km/h 90 % 0 mm 39 W/m2
08:14 14.8 °C 13.2 °C 1010 hPa South 14.5 km/h 30.6 km/h 90 % 0 mm 28 W/m2
08:17 14.8 °C 13.2 °C 1010 hPa South 12.9 km/h 30.6 km/h 90 % 0 mm 33 W/m2
08:22 14.8 °C 13.2 °C 1010 hPa South 14.5 km/h 30.6 km/h 90 % 0 mm 39 W/m2
08:27 14.8 °C 13.2 °C 1010.4 hPa South 17.7 km/h 30.6 km/h 90 % 0 mm 39 W/m2
08:32 14.8 °C 13.2 °C 1010 hPa South 14.5 km/h 32.2 km/h 90 % 0 mm 56 W/m2
08:37 14.8 °C 13.2 °C 1010 hPa South 14.5 km/h 33.8 km/h 90 % 0 mm 58 W/m2
08:42 14.8 °C 13.2 °C 1010 hPa South 16.1 km/h 33.8 km/h 90 % 0 mm 72 W/m2
08:47 14.9 °C 13.3 °C 1010 hPa South 16.1 km/h 32.2 km/h 90 % 0 mm 88 W/m2
08:52 14.9 °C 13.3 °C 1010 hPa South 16.1 km/h 32.2 km/h 90 % 0 mm 97 W/m2
08:57 14.9 °C 13.3 °C 1010.4 hPa South 16.1 km/h 38.6 km/h 90 % 0 mm 120 W/m2
09:02 15 °C 13.4 °C 1010.4 hPa South 17.7 km/h 38.6 km/h 90 % 0 mm 100 W/m2
09:07 15 °C 13.4 °C 1010.4 hPa South 17.7 km/h 32.2 km/h 90 % 0 mm 88 W/m2
09:12 15 °C 13.4 °C 1010.4 hPa South 17.7 km/h 33.8 km/h 90 % 0 mm 79 W/m2
09:17 15 °C 13.4 °C 1010.4 hPa SSW 20.9 km/h 38.6 km/h 90 % 0 mm 79 W/m2
09:22 15.1 °C 13.4 °C 1010.4 hPa SSW 19.3 km/h 38.6 km/h 90 % 0 mm 79 W/m2
09:27 15.1 °C 13.4 °C 1010 hPa SSW 17.7 km/h 32.2 km/h 90 % 0 mm 100 W/m2
09:32 15.1 °C 13.3 °C 1010 hPa SSW 19.3 km/h 37 km/h 89 % 0 mm 125 W/m2
09:37 15.1 °C 13.3 °C 1010 hPa SSW 20.9 km/h 37 km/h 89 % 0 mm 167 W/m2
09:43 15.2 °C 13.4 °C 1010 hPa SSW 19.3 km/h 35.4 km/h 89 % 0 mm 185 W/m2
09:48 15.3 °C 13.5 °C 1010 hPa SSW 17.7 km/h 35.4 km/h 89 % 0 mm 248 W/m2
09:53 15.4 °C 13.6 °C 1010 hPa SSW 17.7 km/h 32.2 km/h 89 % 0 mm 339 W/m2
09:58 15.6 °C 13.6 °C 1010 hPa SSW 20.9 km/h 37 km/h 88 % 0 mm 221 W/m2
10:03 15.7 °C 13.7 °C 1010 hPa SSW 19.3 km/h 37 km/h 88 % 0 mm 207 W/m2
10:08 15.7 °C 13.7 °C 1010 hPa SSW 17.7 km/h 32.2 km/h 88 % 0 mm 123 W/m2
10:13 15.7 °C 13.6 °C 1010 hPa SSW 14.5 km/h 32.2 km/h 87 % 0 mm 148 W/m2
10:18 15.8 °C 13.7 °C 1010 hPa SSW 14.5 km/h 24.1 km/h 87 % 0 mm 272 W/m2
10:23 15.9 °C 13.7 °C 1010 hPa SSW 16.1 km/h 29 km/h 87 % 0 mm 251 W/m2
10:28 16 °C 13.8 °C 1010 hPa SSW 17.7 km/h 32.2 km/h 87 % 0 mm 225 W/m2
10:33 16.1 °C 13.8 °C 1010 hPa SSW 19.3 km/h 33.8 km/h 86 % 0 mm 236 W/m2
10:38 16.1 °C 13.8 °C 1010 hPa SSW 19.3 km/h 35.4 km/h 86 % 0 mm 227 W/m2
10:43 16.2 °C 13.8 °C 1010 hPa SSW 16.1 km/h 35.4 km/h 86 % 0 mm 197 W/m2
10:48 16.2 °C 13.7 °C 1010 hPa SSW 14.5 km/h 29 km/h 85 % 0 mm 204 W/m2
10:53 16.2 °C 13.7 °C 1010 hPa SSW 16.1 km/h 35.4 km/h 85 % 0 mm 197 W/m2
10:58 16.2 °C 13.8 °C 1010 hPa SSW 17.7 km/h 35.4 km/h 86 % 0 mm 162 W/m2
11:03 16.1 °C 13.8 °C 1010 hPa SSW 17.7 km/h 38.6 km/h 86 % 0 mm 111 W/m2
11:08 16.1 °C 13.6 °C 1010 hPa SSW 19.3 km/h 38.6 km/h 85 % 0 mm 93 W/m2
11:13 16 °C 13.7 °C 1010 hPa SSW 19.3 km/h 37 km/h 86 % 0 mm 105 W/m2
11:18 15.9 °C 13.6 °C 1010 hPa SSW 17.7 km/h 32.2 km/h 86 % 0 mm 100 W/m2
11:23 15.9 °C 13.6 °C 1010 hPa SSW 19.3 km/h 35.4 km/h 86 % 0 mm 93 W/m2
11:28 15.8 °C 13.4 °C 1010 hPa SSW 20.9 km/h 38.6 km/h 86 % 0 mm 107 W/m2
11:33 15.8 °C 13.4 °C 1010.4 hPa SSW 22.5 km/h 38.6 km/h 86 % 0 mm 93 W/m2
11:38 15.8 °C 13.7 °C 1010.4 hPa SSW 19.3 km/h 38.6 km/h 87 % 0 mm 109 W/m2
11:43 15.8 °C 13.7 °C 1010.4 hPa SSW 16.1 km/h 38.6 km/h 87 % 0 mm 121 W/m2
11:48 15.7 °C 13.6 °C 1010 hPa SSW 17.7 km/h 35.4 km/h 87 % 0 mm 123 W/m2
11:53 15.7 °C 13.6 °C 1010.4 hPa SSW 19.3 km/h 35.4 km/h 87 % 0 mm 123 W/m2
11:58 15.7 °C 13.6 °C 1010.4 hPa SSW 20.9 km/h 38.6 km/h 87 % 0 mm 107 W/m2
12:03 15.7 °C 13.7 °C 1010.4 hPa SSW 19.3 km/h 38.6 km/h 88 % 0 mm 104 W/m2
12:08 15.7 °C 13.7 °C 1010.4 hPa SSW 16.1 km/h 37 km/h 88 % 0 mm 83 W/m2
12:13 15.7 °C 13.7 °C 1010.4 hPa SSW 16.1 km/h 37 km/h 88 % 0 mm 81 W/m2
12:18 15.7 °C 13.7 °C 1010.4 hPa SSW 17.7 km/h 30.6 km/h 88 % 0 mm 84 W/m2
12:24 15.7 °C 13.7 °C 1010.4 hPa SSW 16.1 km/h 25.7 km/h 88 % 0 mm 88 W/m2
12:29 15.7 °C 13.7 °C 1010.4 hPa SSW 14.5 km/h 29 km/h 88 % 0 mm 120 W/m2
12:33 15.7 °C 13.7 °C 1010.4 hPa SSW 14.5 km/h 29 km/h 88 % 0 mm 121 W/m2
12:39 15.8 °C 13.8 °C 1010.4 hPa SSW 14.5 km/h 24.1 km/h 88 % 0 mm 125 W/m2
12:44 15.8 °C 14 °C 1010.4 hPa SSW 16.1 km/h 25.7 km/h 89 % 0 mm 141 W/m2
12:49 15.8 °C 14 °C 1010.4 hPa SSW 16.1 km/h 25.7 km/h 89 % 0 mm 160 W/m2
12:54 15.8 °C 14 °C 1010.4 hPa SSW 12.9 km/h 22.5 km/h 89 % 0 mm 135 W/m2
12:59 15.8 °C 14 °C 1010.4 hPa SSW 14.5 km/h 32.2 km/h 89 % 0 mm 118 W/m2
13:04 15.8 °C 14 °C 1010.4 hPa SSW 16.1 km/h 32.2 km/h 89 % 0 mm 118 W/m2
13:09 15.8 °C 14 °C 1010.7 hPa SSW 16.1 km/h 29 km/h 89 % 0 mm 77 W/m2
13:14 15.8 °C 14 °C 1010.7 hPa SSW 14.5 km/h 25.7 km/h 89 % 0 mm 60 W/m2
13:19 15.8 °C 14 °C 1010.7 hPa SSW 11.3 km/h 20.9 km/h 89 % 0 mm 42 W/m2
13:24 15.7 °C 13.7 °C 1011.1 hPa WSW 11.3 km/h 24.1 km/h 88 % 0.25 mm 25 W/m2
13:29 15.2 °C 13.4 °C 1011.1 hPa West 11.3 km/h 24.1 km/h 89 % 0.51 mm 62 W/m2
13:34 14.9 °C 13.3 °C 1011.1 hPa WSW 9.7 km/h 22.5 km/h 90 % 0.51 mm 47 W/m2
13:39 14.7 °C 13.2 °C 1011.1 hPa SW 6.4 km/h 11.3 km/h 91 % 0.51 mm 51 W/m2
13:44 14.6 °C 13.3 °C 1011.1 hPa SW 3.2 km/h 9.7 km/h 92 % 0.51 mm 53 W/m2
13:49 14.6 °C 13.3 °C 1011.1 hPa SW 3.2 km/h 9.7 km/h 92 % 0.76 mm 74 W/m2
13:54 14.5 °C 13.2 °C 1011.1 hPa SSW 1.6 km/h 9.7 km/h 92 % 0.76 mm 81 W/m2
13:59 14.6 °C 13.5 °C 1011.1 hPa West 1.6 km/h 12.9 km/h 93 % 1.02 mm 107 W/m2
14:04 14.6 °C 13.5 °C 1011.1 hPa West 4.8 km/h 12.9 km/h 93 % 1.02 mm 107 W/m2
14:09 14.7 °C 13.6 °C 1011.1 hPa West 6.4 km/h 12.9 km/h 93 % 1.02 mm 81 W/m2
14:14 14.7 °C 13.6 °C 1011.1 hPa West 6.4 km/h 11.3 km/h 93 % 1.02 mm 65 W/m2
14:19 14.7 °C 13.6 °C 1011.1 hPa West 6.4 km/h 11.3 km/h 93 % 1.02 mm 81 W/m2
14:24 14.7 °C 13.6 °C 1011.4 hPa West 6.4 km/h 14.5 km/h 93 % 0.76 mm 91 W/m2
14:29 14.6 °C 13.5 °C 1011.4 hPa West 9.7 km/h 22.5 km/h 93 % 0.51 mm 81 W/m2
14:35 14.3 °C 13 °C 1011.4 hPa WNW 12.9 km/h 24.1 km/h 92 % 0.51 mm 60 W/m2
14:40 14.2 °C 12.9 °C 1011.4 hPa WNW 12.9 km/h 24.1 km/h 92 % 0.51 mm 98 W/m2
14:44 14.2 °C 12.9 °C 1011.4 hPa WNW 12.9 km/h 24.1 km/h 92 % 0.51 mm 105 W/m2
14:50 14.2 °C 12.9 °C 1011.7 hPa WNW 11.3 km/h 19.3 km/h 92 % 0.25 mm 84 W/m2
14:55 14.1 °C 12.7 °C 1011.7 hPa WNW 12.9 km/h 22.5 km/h 91 % 0.25 mm 93 W/m2
15:00 14.1 °C 12.8 °C 1011.7 hPa WNW 11.3 km/h 22.5 km/h 92 % 0 mm 100 W/m2
15:05 14.1 °C 12.7 °C 1011.7 hPa WNW 9.7 km/h 19.3 km/h 91 % 0 mm 113 W/m2
15:10 14.1 °C 12.7 °C 1011.7 hPa WNW 9.7 km/h 19.3 km/h 91 % 0 mm 76 W/m2
15:15 14.1 °C 12.8 °C 1011.7 hPa WNW 6.4 km/h 16.1 km/h 92 % 0 mm 79 W/m2
15:20 14 °C 12.6 °C 1012.1 hPa West 6.4 km/h 12.9 km/h 91 % 0 mm 62 W/m2
15:25 13.9 °C 12.4 °C 1012.1 hPa West 8 km/h 14.5 km/h 91 % 0 mm 77 W/m2
15:30 13.9 °C 12.3 °C 1012.1 hPa WNW 9.7 km/h 22.5 km/h 90 % 0 mm 104 W/m2
15:35 13.9 °C 12.3 °C 1012.1 hPa WNW 11.3 km/h 22.5 km/h 90 % 0 mm 83 W/m2
15:40 14 °C 12.2 °C 1012.1 hPa West 11.3 km/h 19.3 km/h 89 % 0 mm 60 W/m2
15:45 13.9 °C 11.9 °C 1012.1 hPa West 11.3 km/h 19.3 km/h 88 % 0 mm 70 W/m2
15:50 13.9 °C 11.8 °C 1012.1 hPa West 9.7 km/h 19.3 km/h 87 % 0 mm 72 W/m2
15:55 13.9 °C 11.9 °C 1012.1 hPa West 9.7 km/h 17.7 km/h 88 % 0 mm 60 W/m2
16:00 13.9 °C 11.9 °C 1012.4 hPa West 9.7 km/h 17.7 km/h 88 % 0 mm 65 W/m2
16:05 13.9 °C 11.9 °C 1012.4 hPa West 9.7 km/h 19.3 km/h 88 % 0 mm 77 W/m2
16:10 13.9 °C 11.8 °C 1012.4 hPa West 12.9 km/h 22.5 km/h 87 % 0 mm 84 W/m2
16:12 13.9 °C 11.8 °C 1012.4 hPa West 12.9 km/h 22.5 km/h 87 % 0 mm 86 W/m2
16:17 14 °C 11.9 °C 1012.4 hPa WNW 12.9 km/h 19.3 km/h 87 % 0 mm 86 W/m2
16:22 14 °C 11.9 °C 1012.4 hPa WNW 9.7 km/h 17.7 km/h 87 % 0 mm 109 W/m2
16:27 14.1 °C 11.9 °C 1012.4 hPa WNW 8 km/h 14.5 km/h 87 % 0 mm 111 W/m2
16:36 14.1 °C 11.8 °C 1012.4 hPa WNW 11.3 km/h 12.9 km/h 86 % 0 mm 58 W/m2
16:41 14.1 °C 11.6 °C 1012.4 hPa WNW 12.9 km/h 19.3 km/h 85 % 0 mm 54 W/m2
16:46 14.1 °C 11.4 °C 1012.4 hPa WNW 12.9 km/h 22.5 km/h 84 % 0 mm 53 W/m2
16:51 14.1 °C 11.6 °C 1012.4 hPa WNW 11.3 km/h 22.5 km/h 85 % 0 mm 58 W/m2
16:56 14.1 °C 11.6 °C 1012.4 hPa WNW 9.7 km/h 17.7 km/h 85 % 0 mm 51 W/m2
17:01 14 °C 11.3 °C 1012.8 hPa WNW 11.3 km/h 22.5 km/h 84 % 0 mm 83 W/m2
17:06 14 °C 11.2 °C 1012.8 hPa WNW 12.9 km/h 22.5 km/h 83 % 0 mm 107 W/m2
17:11 14.1 °C 11.3 °C 1012.8 hPa WNW 12.9 km/h 22.5 km/h 83 % 0 mm 98 W/m2
17:16 14.1 °C 11.3 °C 1012.8 hPa WNW 11.3 km/h 19.3 km/h 83 % 0 mm 84 W/m2
17:21 14.1 °C 10.9 °C 1012.8 hPa WNW 12.9 km/h 22.5 km/h 81 % 0 mm 81 W/m2
17:27 14.1 °C 10.9 °C 1013.1 hPa WNW 12.9 km/h 22.5 km/h 81 % 0 mm 202 W/m2
17:32 14.3 °C 10.9 °C 1013.1 hPa WNW 14.5 km/h 22.5 km/h 80 % 0 mm 193 W/m2
17:37 14.5 °C 10.7 °C 1013.1 hPa WNW 14.5 km/h 24.1 km/h 78 % 0 mm 213 W/m2
17:38 14.5 °C 10.7 °C 1013.1 hPa WNW 14.5 km/h 24.1 km/h 78 % 0 mm 223 W/m2
17:43 14.6 °C 11 °C 1013.1 hPa WNW 12.9 km/h 24.1 km/h 79 % 0 mm 134 W/m2
17:48 14.5 °C 10.7 °C 1013.4 hPa WNW 11.3 km/h 20.9 km/h 78 % 0 mm 176 W/m2
17:53 14.6 °C 10.8 °C 1013.4 hPa WNW 11.3 km/h 20.9 km/h 78 % 0 mm 127 W/m2
17:58 14.5 °C 10.5 °C 1013.4 hPa WNW 11.3 km/h 20.9 km/h 77 % 0 mm 97 W/m2
18:03 14.5 °C 10.7 °C 1013.4 hPa WNW 9.7 km/h 20.9 km/h 78 % 0 mm 74 W/m2
18:09 14.4 °C 10.4 °C 1013.8 hPa WNW 9.7 km/h 20.9 km/h 77 % 0 mm 51 W/m2
18:14 14.3 °C 10.1 °C 1013.8 hPa WNW 11.3 km/h 22.5 km/h 76 % 0 mm 46 W/m2
18:19 14.1 °C 9.9 °C 1013.8 hPa WNW 14.5 km/h 29 km/h 76 % 0 mm 49 W/m2
18:24 14 °C 9.6 °C 1013.8 hPa WNW 14.5 km/h 29 km/h 75 % 0 mm 76 W/m2
18:29 13.9 °C 9.7 °C 1013.8 hPa WNW 12.9 km/h 24.1 km/h 76 % 0 mm 49 W/m2
18:34 13.8 °C 9.7 °C 1014.1 hPa WNW 12.9 km/h 24.1 km/h 76 % 0 mm 54 W/m2
18:39 13.8 °C 9.7 °C 1014.1 hPa WNW 12.9 km/h 24.1 km/h 76 % 0 mm 32 W/m2
18:44 13.7 °C 9.7 °C 1014.1 hPa WNW 11.3 km/h 20.9 km/h 77 % 0.25 mm 23 W/m2
18:45 13.6 °C 9.7 °C 1014.1 hPa WNW 11.3 km/h 19.3 km/h 77 % 0.25 mm 21 W/m2
18:50 13.5 °C 9.6 °C 1014.1 hPa WNW 9.7 km/h 19.3 km/h 77 % 0.25 mm 14 W/m2
18:55 13.3 °C 9.6 °C 1014.1 hPa West 8 km/h 12.9 km/h 78 % 0.25 mm 12 W/m2
19:00 13.2 °C 9.6 °C 1014.1 hPa West 6.4 km/h 12.9 km/h 79 % 0.25 mm 11 W/m2
19:05 13 °C 9.6 °C 1014.4 hPa West 3.2 km/h 11.3 km/h 80 % 0.25 mm 11 W/m2
19:10 12.8 °C 9.4 °C 1014.4 hPa West 3.2 km/h 11.3 km/h 80 % 0.25 mm 9 W/m2
19:15 12.7 °C 9.5 °C 1014.8 hPa West 3.2 km/h 9.7 km/h 81 % 0.25 mm 7 W/m2
19:20 12.6 °C 9.4 °C 1014.8 hPa West 3.2 km/h 11.3 km/h 81 % 0.25 mm 0 W/m2
19:25 12.4 °C 9.4 °C 1014.8 hPa WNW 3.2 km/h 11.3 km/h 82 % 0.25 mm 0 W/m2
19:29 12.2 °C 9.2 °C 1014.8 hPa WNW 1.6 km/h 8 km/h 82 % 0.25 mm 0 W/m2
19:34 12.1 °C 9.1 °C 1015.1 hPa WNW 1.6 km/h 6.4 km/h 82 % 0.25 mm 0 W/m2
19:39 11.9 °C 9.1 °C 1015.1 hPa NW 1.6 km/h 6.4 km/h 83 % 0.25 mm 0 W/m2
19:44 11.7 °C 8.9 °C 1015.1 hPa NW 3.2 km/h 8 km/h 83 % 0 mm 0 W/m2
19:49 11.6 °C 9 °C 1015.1 hPa WNW 3.2 km/h 12.9 km/h 84 % 0 mm 0 W/m2
19:54 11.4 °C 8.8 °C 1015.1 hPa West 1.6 km/h 12.9 km/h 84 % 0 mm 0 W/m2
19:59 11.2 °C 8.6 °C 1015.5 hPa West 1.6 km/h 9.7 km/h 84 % 0 mm 0 W/m2
20:04 11.1 °C 8.7 °C 1015.5 hPa West 1.6 km/h 6.4 km/h 85 % 0 mm 0 W/m2
20:09 10.9 °C 8.5 °C 1015.5 hPa West 3.2 km/h 9.7 km/h 85 % 0 mm 0 W/m2
20:14 10.8 °C 8.6 °C 1015.5 hPa West 4.8 km/h 14.5 km/h 86 % 0 mm 0 W/m2
20:19 10.7 °C 8.6 °C 1015.5 hPa West 6.4 km/h 14.5 km/h 87 % 0 mm 0 W/m2
20:24 10.7 °C 8.6 °C 1015.5 hPa West 9.7 km/h 14.5 km/h 87 % 0 mm 0 W/m2
20:29 10.6 °C 8.7 °C 1015.5 hPa West 9.7 km/h 14.5 km/h 88 % 0 mm 0 W/m2
20:34 10.6 °C 8.7 °C 1015.8 hPa West 8 km/h 14.5 km/h 88 % 0 mm 0 W/m2
20:39 10.6 °C 8.7 °C 1015.8 hPa West 8 km/h 12.9 km/h 88 % 0 mm 0 W/m2
20:44 10.5 °C 8.6 °C 1015.8 hPa WNW 8 km/h 12.9 km/h 88 % 0 mm 0 W/m2
20:50 10.4 °C 8.5 °C 1015.8 hPa WNW 9.7 km/h 14.5 km/h 88 % 0 mm 0 W/m2
20:55 10.4 °C 8.5 °C 1015.8 hPa WNW 8 km/h 14.5 km/h 88 % 0 mm 0 W/m2
20:58 10.4 °C 8.5 °C 1015.8 hPa WNW 8 km/h 12.9 km/h 88 % 0 mm 0 W/m2
21:03 10.4 °C 8.5 °C 1015.8 hPa WNW 8 km/h 12.9 km/h 88 % 0 mm 0 W/m2
21:08 10.3 °C 8.4 °C 1015.8 hPa WNW 8 km/h 12.9 km/h 88 % 0 mm 0 W/m2
21:13 10.3 °C 8.4 °C 1016.1 hPa West 6.4 km/h 11.3 km/h 88 % 0 mm 0 W/m2
21:18 10.2 °C 8.3 °C 1016.1 hPa West 4.8 km/h 11.3 km/h 88 % 0 mm 0 W/m2
21:23 10.1 °C 8.2 °C 1016.1 hPa West 3.2 km/h 8 km/h 88 % 0 mm 0 W/m2
21:28 10 °C 8.1 °C 1016.1 hPa West 3.2 km/h 8 km/h 88 % 0 mm 0 W/m2
21:33 9.8 °C 8.1 °C 1016.1 hPa West 1.6 km/h 8 km/h 89 % 0 mm 0 W/m2
21:38 9.7 °C 7.8 °C 1016.5 hPa West 1.6 km/h 6.4 km/h 88 % 0 mm 0 W/m2
21:44 9.6 °C 7.9 °C 1016.5 hPa West 1.6 km/h 8 km/h 89 % 0 mm 0 W/m2
21:49 9.5 °C 7.8 °C 1016.5 hPa West 1.6 km/h 8 km/h 89 % 0 mm 0 W/m2
21:54 9.4 °C 7.7 °C 1016.5 hPa West 1.6 km/h 6.4 km/h 89 % 0 mm 0 W/m2
21:59 9.2 °C 7.5 °C 1016.5 hPa Calm   4.8 km/h 89 % 0 mm 0 W/m2
22:04 9.2 °C 7.8 °C 1016.5 hPa West 1.6 km/h 6.4 km/h 91 % 0 mm 0 W/m2
22:09 9.2 °C 7.7 °C 1016.5 hPa West 1.6 km/h 4.8 km/h 90 % 0 mm 0 W/m2
22:14 9.1 °C 7.6 °C 1016.8 hPa Calm   6.4 km/h 90 % 0 mm 0 W/m2
22:19 9 °C 7.6 °C 1016.8 hPa NW 3.2 km/h 9.7 km/h 91 % 0 mm 0 W/m2
22:24 9.1 °C 7.7 °C 1016.8 hPa WNW 6.4 km/h 12.9 km/h 91 % 0 mm 0 W/m2
22:29 9.1 °C 7.7 °C 1016.8 hPa West 8 km/h 12.9 km/h 91 % 0 mm 0 W/m2
22:34 9.1 °C 7.7 °C 1016.8 hPa West 9.7 km/h 12.9 km/h 91 % 0 mm 0 W/m2
22:39 9.1 °C 7.7 °C 1016.8 hPa West 9.7 km/h 16.1 km/h 91 % 0 mm 0 W/m2
22:44 9.2 °C 7.8 °C 1016.8 hPa West 9.7 km/h 16.1 km/h 91 % 0 mm 0 W/m2
22:49 9.2 °C 7.8 °C 1016.8 hPa West 6.4 km/h 12.9 km/h 91 % 0 mm 0 W/m2
22:54 9.1 °C 7.7 °C 1016.8 hPa West 4.8 km/h 11.3 km/h 91 % 0 mm 0 W/m2
22:59 9 °C 7.6 °C 1016.8 hPa West 1.6 km/h 9.7 km/h 91 % 0 mm 0 W/m2
23:04 8.9 °C 7.5 °C 1017.2 hPa WNW 3.2 km/h 9.7 km/h 91 % 0 mm 0 W/m2
23:09 8.8 °C 7.4 °C 1017.2 hPa WNW 3.2 km/h 9.7 km/h 91 % 0 mm 0 W/m2
23:14 8.8 °C 7.4 °C 1017.2 hPa WNW 4.8 km/h 12.9 km/h 91 % 0 mm 0 W/m2
23:19 8.8 °C 7.4 °C 1017.2 hPa WNW 8 km/h 12.9 km/h 91 % 0 mm 0 W/m2
23:24 8.8 °C 7.4 °C 1017.2 hPa WNW 8 km/h 12.9 km/h 91 % 0 mm 0 W/m2
23:29 8.8 °C 7.4 °C 1017.2 hPa WNW 6.4 km/h 12.9 km/h 91 % 0 mm 0 W/m2
23:34 8.7 °C 7.3 °C 1017.2 hPa WNW 3.2 km/h 9.7 km/h 91 % 0 mm 0 W/m2
23:39 8.6 °C 7.2 °C 1017.2 hPa Calm   9.7 km/h 91 % 0 mm 0 W/m2
23:44 8.5 °C 7.1 °C 1017.5 hPa West 1.6 km/h 6.4 km/h 91 % 0 mm 0 W/m2
23:49 8.3 °C 6.9 °C 1017.5 hPa West 1.6 km/h 6.4 km/h 91 % 0 mm 0 W/m2
23:54 8.1 °C 6.7 °C 1017.5 hPa Calm   3.2 km/h 91 % 0 mm 0 W/m2
23:59 8 °C 6.6 °C 1017.5 hPa Calm   6.4 km/h 91 % 0 mm 0 W/m2
Delerius-Weather
Compliments of Weather Underground - 2.25 mb

Data updates at regular intervals.